Volver al catálogo

STARLINK-2387

ActivoComunicacionesVLEO
NORAD 47806·PAYLOAD·🇺🇸 United States

Lanzado Mar 11, 2021 desde Cape Canaveral Space Force Station

Loading…

Próximos Pases (próximas 24 horas)

TLE

ActualizadoSource: CelesTrak SupGP

Época: Sep 14, 2026, 20:39 UTC

1 47806C 21018V   26257.86090278  .00016837  00000+0  54154-3 0  2572
2 47806  53.1581  82.6181 0001434  89.0817  53.2013 15.31686243    15

Sigue STARLINK-2387 en tiempo real con AllMySat

Download on the App Store